Decorah, Iowa, United States (52101)
Lat: 43.30N, Lon: 91.79W
Wx Zone: IAZ010
Local Info
Past Weather Observations for Today

NOTE: This archive is for the closest National Weather Service station to Decorah. Information may differ from the station used for current weather conditions.

Click here for Long-term Archive

Time Weather Temperature Dewpoint Humidity Pressure Winds Precip Visibility
18:55
Overcast
Fog And Mist
57°F / 14°C 57°F / 14°C 100% 29.92 in
(1013 mb)
Variable 3.5 mph
(Variable 6 kph)
- 5SM
18:35
Overcast
Fog And Mist
59°F / 15°C 57°F / 14°C 94% 29.92 in
(1013 mb)
Variable 4.6 mph
(Variable 7 kph)
- 5SM
18:15
Overcast
59°F / 15°C 57°F / 14°C 94% 29.92 in
(1013 mb)
Calm - 7SM
17:55
Overcast
59°F / 15°C 57°F / 14°C 94% 29.92 in
(1013 mb)
SW 5.8 mph
(SW 9 kph)
- 7SM
17:35
Overcast
59°F / 15°C 57°F / 14°C 94% 29.92 in
(1013 mb)
SW 4.6 mph
(SW 7 kph)
- 9SM
17:15
Overcast
59°F / 15°C 57°F / 14°C 94% 29.92 in
(1013 mb)
SW 5.8 mph
(SW 9 kph)
- 10SM
16:55
Overcast
59°F / 15°C 57°F / 14°C 94% 29.92 in
(1013 mb)
SSE 6.9 mph
(SSE 11 kph)
- 10SM
16:35
Overcast
59°F / 15°C 57°F / 14°C 94% 29.92 in
(1013 mb)
SSE 4.6 mph
(SSE 7 kph)
- 10SM
16:15
Overcast
59°F / 15°C 55°F / 13°C 88% 29.89 in
(1012 mb)
SSE 8.1 mph
(SSE 13 kph)
- 10SM
15:55
Overcast
59°F / 15°C 55°F / 13°C 88% 29.89 in
(1012 mb)
S 6.9 mph
(S 11 kph)
- 10SM
15:35
Overcast
59°F / 15°C 55°F / 13°C 88% 29.89 in
(1012 mb)
SSE 10.4 mph
(SSE 17 kph)
- 10SM
15:15
Overcast
59°F / 15°C 55°F / 13°C 88% 29.89 in
(1012 mb)
SSE 9.2 mph
(SSE 15 kph)
- 9SM
14:55
Overcast
57°F / 14°C 55°F / 13°C 94% 29.89 in
(1012 mb)
SSE 6.9 mph
(SSE 11 kph)
- 8SM
14:35
Overcast
Fog And Mist
57°F / 14°C 55°F / 13°C 94% 29.89 in
(1012 mb)
SSE 9.2 mph
(SSE 15 kph)
- 5SM
14:15
Overcast
Fog And Mist
57°F / 14°C 55°F / 13°C 94% 29.89 in
(1012 mb)
SW 9.2 mph
(SW 15 kph)
- 4SM
13:55
Overcast
Fog And Mist
57°F / 14°C 55°F / 13°C 94% 29.89 in
(1012 mb)
SSE 10.4 mph
(SSE 17 kph)
- 2 1/2SM
13:35
Overcast
Fog And Mist
57°F / 14°C 55°F / 13°C 94% 29.89 in
(1012 mb)
Variable 6.9 mph
(Variable 11 kph)
- 2 1/2SM
13:15
Overcast
Fog And Mist
59°F / 15°C 55°F / 13°C 88% 29.92 in
(1013 mb)
SW 8.1 mph
(SW 13 kph)
- 4SM
12:55
Overcast
61°F / 16°C 55°F / 13°C 83% 29.92 in
(1013 mb)
Variable 6.9 mph
(Variable 11 kph)
- 9SM
12:35
Overcast
63°F / 17°C 55°F / 13°C 77% 29.92 in
(1013 mb)
SW 11.5 mph
(SW 19 kph)
- 10SM
12:15
Overcast
63°F / 17°C 55°F / 13°C 77% 29.92 in
(1013 mb)
S 12.7 mph
(S 20 kph)
- 10SM
11:55
Mostly Cloudy
63°F / 17°C 55°F / 13°C 77% 29.92 in
(1013 mb)
S 12.7 mph
(S 20 kph)
- 10SM
11:35
Mostly Cloudy
63°F / 17°C 55°F / 13°C 77% 29.92 in
(1013 mb)
S 10.4 mph
(S 17 kph)
- 10SM
11:15
Partly Cloudy
63°F / 17°C 55°F / 13°C 77% 29.95 in
(1014 mb)
S 16.1 mph
(S 26 kph)
- 10SM
10:55
Partly Cloudy
61°F / 16°C 55°F / 13°C 83% 29.95 in
(1014 mb)
S 11.5 mph
(S 19 kph)
- 10SM
10:35
Partly Cloudy
59°F / 15°C 55°F / 13°C 88% 29.95 in
(1014 mb)
S 10.4 mph
(S 17 kph)
- 10SM
10:15
Mostly Cloudy
59°F / 15°C 55°F / 13°C 88% 29.98 in
(1015 mb)
S 13.8 mph
(S 22 kph)
- 10SM
09:55
Mostly Cloudy
57°F / 14°C 55°F / 13°C 94% 29.98 in
(1015 mb)
SSE 10.4 mph
(SSE 17 kph)
- 9SM
09:35
Partly Cloudy
55°F / 13°C 55°F / 13°C 100% 29.98 in
(1015 mb)
S 10.4 mph
(S 17 kph)
- 7SM
09:15
Overcast
Fog And Mist
54°F / 12°C 54°F / 12°C 100% 29.98 in
(1015 mb)
SSE 10.4 mph
(SSE 17 kph)
- 3SM
08:55
Overcast
Fog And Mist
54°F / 12°C 54°F / 12°C 100% 29.98 in
(1015 mb)
SSE 8.1 mph
(SSE 13 kph)
- 1 1/4SM
08:35
Overcast
Fog
52°F / 11°C 52°F / 11°C 100% 29.98 in
(1015 mb)
SSE 6.9 mph
(SSE 11 kph)
- 1/4SM
08:15
Overcast
Fog
52°F / 11°C 52°F / 11°C 100% 30.01 in
(1016 mb)
SSE 5.8 mph
(SSE 9 kph)
- 1/4SM
07:55
Overcast
Fog
52°F / 11°C 52°F / 11°C 100% 29.98 in
(1015 mb)
SSE 6.9 mph
(SSE 11 kph)
- M1/4SM
07:35
Overcast
Fog
50°F / 10°C 50°F / 10°C 100% 29.98 in
(1015 mb)
SSE 6.9 mph
(SSE 11 kph)
- M1/4SM
07:15
Overcast
Fog
50°F / 10°C 50°F / 10°C 100% 29.98 in
(1015 mb)
SSE 6.9 mph
(SSE 11 kph)
- M1/4SM
06:55
Overcast
Fog
50°F / 10°C 50°F / 10°C 100% 29.98 in
(1015 mb)
SSE 5.8 mph
(SSE 9 kph)
- M1/4SM
06:35
Overcast
Fog
50°F / 10°C 50°F / 10°C 100% 30.01 in
(1016 mb)
SSE 5.8 mph
(SSE 9 kph)
- M1/4SM
06:15
Overcast
Fog
50°F / 10°C 50°F / 10°C 100% 30.01 in
(1016 mb)
SSE 5.8 mph
(SSE 9 kph)
- M1/4SM
05:55
Overcast
Fog
50°F / 10°C 50°F / 10°C 100% 30.01 in
(1016 mb)
SSE 3.5 mph
(SSE 6 kph)
- M1/4SM
05:35
Overcast
Fog
50°F / 10°C 50°F / 10°C 100% 30.01 in
(1016 mb)
Variable 4.6 mph
(Variable 7 kph)
- M1/4SM
05:15
Overcast
Fog
50°F / 10°C 50°F / 10°C 100% 30.01 in
(1016 mb)
S 4.6 mph
(S 7 kph)
- M1/4SM
04:55
Overcast
Fog
50°F / 10°C 50°F / 10°C 100% 30.01 in
(1016 mb)
SSE 6.9 mph
(SSE 11 kph)
- M1/4SM
04:35
Overcast
Fog
50°F / 10°C 50°F / 10°C 100% 30.01 in
(1016 mb)
S 5.8 mph
(S 9 kph)
- M1/4SM
04:15
Overcast
Fog
50°F / 10°C 50°F / 10°C 100% 30.01 in
(1016 mb)
Calm - M1/4SM
03:55
Overcast
Fog
50°F / 10°C 50°F / 10°C 100% 30.01 in
(1016 mb)
S 4.6 mph
(S 7 kph)
- M1/4SM
03:35
Overcast
Fog
50°F / 10°C 50°F / 10°C 100% 30.01 in
(1016 mb)
SSE 4.6 mph
(SSE 7 kph)
- M1/4SM
03:15
Overcast
Fog
50°F / 10°C 50°F / 10°C 100% 30.01 in
(1016 mb)
Calm - M1/4SM
02:55
Overcast
Fog
50°F / 10°C 50°F / 10°C 100% 30.01 in
(1016 mb)
Calm - M1/4SM
02:35
Overcast
Fog
50°F / 10°C 50°F / 10°C 100% 30.01 in
(1016 mb)
Calm - M1/4SM
02:15
Overcast
Fog
50°F / 10°C 50°F / 10°C 100% 30.04 in
(1017 mb)
S 4.6 mph
(S 7 kph)
- M1/4SM
01:55
Overcast
Fog
50°F / 10°C 50°F / 10°C 100% 30.04 in
(1017 mb)
S 4.6 mph
(S 7 kph)
- M1/4SM
01:35
Overcast
Fog
50°F / 10°C 50°F / 10°C 100% 30.04 in
(1017 mb)
Calm - M1/4SM
01:15
Overcast
Fog
50°F / 10°C 50°F / 10°C 100% 30.04 in
(1017 mb)
Calm - M1/4SM
00:55
Overcast
Fog
50°F / 10°C 50°F / 10°C 100% 30.04 in
(1017 mb)
Calm - M1/4SM
00:35
Overcast
Fog
50°F / 10°C 50°F / 10°C 100% 30.04 in
(1017 mb)
SW 4.6 mph
(SW 7 kph)
- M1/4SM
00:15
Overcast
Fog
50°F / 10°C 50°F / 10°C 100% 30.04 in
(1017 mb)
Calm - M1/4SM
Time Weather Temperature Dewpoint Humidity Pressure Winds Precip Visibility


Weather for websites

WeatherForYou.com, LLC is not responsible for any damages or problems caused by this service. Current weather conditions are obtained from the closest station including government and personal stations which may have varying degrees of accuracy. Weather forecasts are derived from the NOAA NDFD. Like all things, this site belongs to Jesus Christ... He just trusts me to maintain it. If you have any questions or comments email webmaster@weatherforyou.com

Copyright © 2014, WeatherForYou.com LLC. All rights reserved.